Stations météo

réclame
Mon MeteoGroup
AWG, Pays-Bas (6208): Température de l'air & dewpoint: 13.07.2018 15:00:00 - 19.07.2018 15:00:00 (CEST)AWG, Pays-Bas (6208): Vitesse du vent & gusts: 13.07.2018 15:00:00 - 19.07.2018 15:00:00 (CEST)AWG, Pays-Bas (6208): Direction du vent: 13.07.2018 15:00:00 - 19.07.2018 15:00:00 (CEST)AWG, Pays-Bas (6208): reduced air pressure: 13.07.2018 15:00:00 - 19.07.2018 15:00:00 (CEST)AWG, Pays-Bas (6208): visibility: 13.07.2018 15:00:00 - 19.07.2018 15:00:00 (CEST)
Date & Time tt [°C] td [°C] ff [km/h] ff [knt] fx [km/h] fx [knt] dd ppp [hPa] vv [km]
19.07.2018 15:00:00 20,4 15,3 26 14 25 14 NNE 1019,2 10
19.07.2018 14:00:00 20,5 13,6 21 11 22 12 NE 1019,5 10
19.07.2018 13:00:00 20,4 13,8 21 11 22 12 ENE 1019,8 10
19.07.2018 12:00:00 20,0 14,7 18 10 22 12 ENE 1019,9 10
19.07.2018 11:00:00 19,7 14,6 16 9 18 10 - 1019,9 10
19.07.2018 10:00:00 19,4 14,2 13 7 18 10 - 1020,0 10
19.07.2018 09:00:00 19,3 9,6 9 5 14 8 ESE 1019,9 10
19.07.2018 08:00:00 19,1 12,0 11 6 14 8 E 1020,0 10
19.07.2018 07:00:00 19,1 10,4 11 6 14 8 E 1019,9 10
19.07.2018 06:00:00 19,0 11,8 9 5 11 6 SE 1019,8 10
19.07.2018 05:00:00 18,5 11,9 13 7 14 8 ESE 1019,8 10
19.07.2018 04:00:00 18,8 11,0 15 8 18 10 ESE 1019,7 10
19.07.2018 03:00:00 19,0 10,2 18 10 22 12 ESE 1019,7 10
19.07.2018 02:00:00 19,4 10,5 18 10 22 12 ESE 1019,5 10
19.07.2018 01:00:00 19,7 14,9 18 10 22 12 E 1019,5 10
19.07.2018 00:00:00 20,0 13,3 18 10 22 12 E 1019,5 10
18.07.2018 23:00:00 20,3 12,9 18 10 22 12 ESE 1019,5 10
18.07.2018 22:00:00 19,8 12,6 16 9 22 12 - 1019,4 10
18.07.2018 21:00:00 20,4 12,9 15 8 18 10 E 1019,1 10
18.07.2018 20:00:00 21,3 12,7 15 8 22 12 - 1019,1 10
18.07.2018 19:00:00 21,8 13,4 13 7 22 12 - 1019,1 10
18.07.2018 18:00:00 22,2 13,1 13 7 18 10 - 1019,2 10
18.07.2018 17:00:00 25,2 13,6 15 8 18 10 - 1019,2 10
18.07.2018 16:00:00 21,6 13,3 15 8 18 10 ENE 1019,3 10
18.07.2018 15:00:00 21,2 13,2 11 6 14 8 NE 1019,2 10
18.07.2018 14:00:00 20,4 13,0 13 7 14 8 NNE 1019,1 10
18.07.2018 13:00:00 19,9 12,5 9 5 11 6 NE 1019,2 10
18.07.2018 12:00:00 18,8 12,4 4 2 7 4 NNW 1019,2 10
18.07.2018 11:00:00 18,1 12,6 8 4 7 4 NW 1018,9 10
18.07.2018 10:00:00 17,9 13,1 5 3 11 6 NW 1019,0 10
18.07.2018 09:00:00 17,6 12,9 9 5 14 8 WNW 1018,6 10
18.07.2018 08:00:00 17,4 13,8 15 8 18 10 NW 1018,0 10
18.07.2018 07:00:00 17,2 14,0 18 10 22 12 NW 1017,7 10
18.07.2018 06:00:00 17,2 13,5 22 12 25 14 WNW 1017,4 10
18.07.2018 05:00:00 17,1 13,9 21 11 25 14 W 1017,1 10
18.07.2018 04:00:00 17,1 13,8 24 13 25 14 WNW 1016,9 10
18.07.2018 03:00:00 17,1 13,6 26 14 25 14 WNW 1016,9 10
18.07.2018 02:00:00 17,1 13,8 26 14 25 14 WNW 1016,9 10
18.07.2018 01:00:00 17,1 13,5 28 15 29 16 W 1016,8 10
18.07.2018 00:00:00 17,2 13,4 24 13 25 14 W 1016,6 10
17.07.2018 23:00:00 17,2 13,4 24 13 25 14 WNW 1016,7 10
17.07.2018 22:00:00 17,5 13,4 28 15 29 16 WNW 1016,2 10
17.07.2018 21:00:00 17,8 13,6 29 16 32 18 W 1015,9 10
17.07.2018 20:00:00 18,8 14,5 31 17 36 19 W 1015,1 10
17.07.2018 19:00:00 18,7 14,3 31 17 32 18 W 1014,7 10
17.07.2018 18:00:00 19,8 15,7 29 16 32 18 W 1014,7 10
17.07.2018 17:00:00 19,4 15,6 28 15 32 18 W 1014,8 10
17.07.2018 16:00:00 20,4 16,0 34 18 36 19 WSW 1014,7 10
17.07.2018 15:00:00 21,1 15,7 29 16 32 18 WSW 1014,3 10
17.07.2018 14:00:00 21,5 16,1 34 18 32 18 WSW 1013,5 10
17.07.2018 13:00:00 22,8 15,5 24 13 25 14 WSW 1013,3 10
17.07.2018 12:00:00 24,1 13,0 9 5 14 8 SW 1013,4 10
17.07.2018 11:00:00 22,3 15,7 11 6 14 8 S 1012,9 10
17.07.2018 10:00:00 20,6 15,5 13 7 18 10 S 1012,8 10
17.07.2018 09:00:00 20,0 15,2 18 10 22 12 S 1012,9 10
17.07.2018 08:00:00 19,4 14,7 16 9 18 10 ESE 1012,8 10
17.07.2018 07:00:00 19,4 14,3 13 7 14 8 SE 1012,8 10
17.07.2018 06:00:00 18,7 14,3 11 6 14 8 S 1012,8 10
17.07.2018 05:00:00 18,7 14,1 15 8 29 16 S 1013,3 10
17.07.2018 04:00:00 19,8 13,7 21 11 25 14 ESE 1013,0 10
17.07.2018 03:00:00 20,1 15,1 24 13 22 12 E 1013,2 10
17.07.2018 02:00:00 20,5 15,7 21 11 22 12 ESE 1013,5 10
17.07.2018 01:00:00 21,2 16,0 21 11 22 12 E 1013,8 10
17.07.2018 00:00:00 20,9 15,5 24 13 25 14 E 1013,8 10
16.07.2018 23:00:00 20,9 15,8 18 10 22 12 ENE 1013,8 10
16.07.2018 22:00:00 21,1 15,8 16 9 22 12 - 1013,6 10
16.07.2018 21:00:00 22,8 15,2 18 10 25 14 - 1013,3 10
16.07.2018 20:00:00 25,3 14,7 24 13 25 14 ENE 1013,3 10
16.07.2018 19:00:00 28,1 15,3 24 13 25 14 ENE 1013,4 10
16.07.2018 18:00:00 27,5 15,8 22 12 25 14 ENE 1013,7 10
16.07.2018 17:00:00 27,5 15,9 24 13 25 14 ENE 1013,9 10
16.07.2018 16:00:00 23,0 16,5 22 12 22 12 ENE 1014,3 10
16.07.2018 15:00:00 21,4 15,9 21 11 22 12 ENE 1014,7 10
16.07.2018 14:00:00 20,8 16,5 22 12 22 12 ENE 1015,0 10
16.07.2018 13:00:00 21,0 16,5 16 9 18 10 NE 1015,1 10
16.07.2018 12:00:00 20,7 16,4 13 7 14 8 E 1015,3 10
16.07.2018 11:00:00 21,1 14,5 15 8 18 10 ESE 1015,4 10
16.07.2018 10:00:00 19,7 14,6 18 10 22 12 ESE 1015,5 10
16.07.2018 09:00:00 19,0 14,0 21 11 25 14 ESE 1015,5 10
16.07.2018 08:00:00 18,4 13,7 22 12 29 16 ESE 1015,6 10
16.07.2018 07:00:00 18,1 13,5 22 12 29 16 ESE 1015,7 10
16.07.2018 06:00:00 18,0 13,4 26 14 29 16 ESE 1015,6 10
16.07.2018 05:00:00 18,2 13,4 26 14 32 18 E 1015,8 10
16.07.2018 04:00:00 18,6 12,5 29 16 32 18 E 1016,0 10
16.07.2018 03:00:00 19,0 13,5 28 15 29 16 E 1016,4 10
16.07.2018 02:00:00 19,3 13,9 22 12 22 12 ESE 1016,5 10
16.07.2018 01:00:00 19,4 14,2 24 13 25 14 ESE 1016,7 10
16.07.2018 00:00:00 19,5 13,9 26 14 29 16 E 1016,9 10
15.07.2018 23:00:00 19,8 14,3 18 10 25 14 E 1016,9 10
15.07.2018 22:00:00 20,2 13,9 18 10 29 16 - 1016,7 10
15.07.2018 21:00:00 21,7 14,0 21 11 25 14 - 1016,5 10
15.07.2018 20:00:00 23,2 13,8 21 11 29 16 ENE 1016,6 10
15.07.2018 19:00:00 25,7 15,2 22 12 25 14 ENE 1016,9 10
15.07.2018 18:00:00 28,5 15,2 22 12 22 12 ENE 1017,2 10
15.07.2018 17:00:00 28,0 14,9 21 11 22 12 NE 1017,4 10
15.07.2018 16:00:00 22,6 15,0 21 11 18 10 NE 1017,8 10
15.07.2018 15:00:00 20,4 14,8 18 10 18 10 NE 1018,2 10
15.07.2018 14:00:00 20,1 14,0 15 8 14 8 NE 1018,5 10
15.07.2018 13:00:00 19,4 12,2 9 5 14 8 ESE 1019,0 10
15.07.2018 12:00:00 19,2 13,2 9 5 11 6 ESE 1019,2 10
15.07.2018 11:00:00 17,8 12,5 13 7 14 8 SE 1019,3 10
15.07.2018 10:00:00 17,3 12,9 15 8 18 10 SE 1019,3 10
15.07.2018 09:00:00 16,4 12,3 16 9 22 12 S 1019,1 10
15.07.2018 08:00:00 15,7 12,2 18 10 22 12 SSE 1019,2 10
15.07.2018 07:00:00 15,3 12,2 21 11 22 12 SSE 1019,0 10
15.07.2018 06:00:00 15,5 12,4 22 12 22 12 SE 1019,0 10
15.07.2018 05:00:00 15,8 12,5 22 12 22 12 SE 1019,3 10
15.07.2018 04:00:00 16,2 12,8 21 11 22 12 SE 1019,5 10
15.07.2018 03:00:00 16,7 12,7 18 10 18 10 ESE 1019,5 10
15.07.2018 02:00:00 17,0 13,1 13 7 18 10 ESE 1019,8 10
15.07.2018 01:00:00 17,2 11,5 13 7 14 8 ESE 1020,0 10
15.07.2018 00:00:00 17,6 12,5 11 6 14 8 ESE 1020,3 10
14.07.2018 23:00:00 17,4 12,3 9 5 14 8 ENE 1020,4 10
14.07.2018 22:00:00 19,5 11,6 9 5 11 6 NNE 1020,4 10
14.07.2018 21:00:00 23,0 11,7 9 5 14 8 NNE 1020,2 10
14.07.2018 20:00:00 24,7 11,9 15 8 18 10 N 1020,4 10
14.07.2018 19:00:00 23,8 11,6 13 7 18 10 N 1020,6 10
14.07.2018 18:00:00 22,3 11,9 15 8 18 10 N 1020,9 10
14.07.2018 17:00:00 19,4 11,4 15 8 18 10 N 1021,3 10
14.07.2018 16:00:00 18,2 11,7 15 8 18 10 N 1021,4 10
14.07.2018 15:00:00 17,2 11,6 13 7 18 10 N 1021,8 10
14.07.2018 14:00:00 16,8 11,8 13 7 18 10 N 1021,9 10
14.07.2018 13:00:00 16,7 12,4 13 7 18 10 NNW 1022,1 10
14.07.2018 12:00:00 16,6 12,7 18 10 22 12 NW 1022,1 10
14.07.2018 11:00:00 16,3 12,0 22 12 22 12 WNW 1022,0 10
14.07.2018 10:00:00 16,3 11,4 22 12 25 14 NW 1022,0 10
14.07.2018 09:00:00 16,5 11,8 8 4 22 12 W 1021,8 10
14.07.2018 08:00:00 16,6 9,8 15 8 18 10 NW 1021,6 10
14.07.2018 07:00:00 16,5 9,2 8 4 14 8 WNW 1021,4 10
14.07.2018 06:00:00 16,2 9,6 15 8 22 12 WNW 1021,5 10
14.07.2018 05:00:00 16,2 9,5 13 7 18 10 WNW 1021,5 10
14.07.2018 04:00:00 15,8 10,6 13 7 14 8 NNW 1021,6 10
14.07.2018 03:00:00 15,7 11,3 11 6 18 10 N 1021,7 10
14.07.2018 02:00:00 15,9 11,8 13 7 14 8 N 1021,8 10
14.07.2018 01:00:00 15,9 11,8 15 8 18 10 N 1022,1 10
14.07.2018 00:00:00 16,2 11,9 18 10 18 10 N 1022,1 10
13.07.2018 23:00:00 16,3 12,0 15 8 18 10 N 1022,0 10
13.07.2018 22:00:00 16,3 12,6 15 8 18 10 N 1021,9 10
13.07.2018 21:00:00 16,4 12,5 16 9 22 12 N 1021,7 10
13.07.2018 20:00:00 16,6 11,5 18 10 18 10 N 1021,7 10
13.07.2018 19:00:00 16,8 11,5 13 7 22 12 NNW 1021,9 10
13.07.2018 18:00:00 16,9 11,4 16 9 18 10 NNW 1022,1 10
13.07.2018 17:00:00 17,4 12,6 16 9 18 10 N 1022,3 10
13.07.2018 16:00:00 17,3 12,0 16 9 18 10 NW 1022,4 10
13.07.2018 15:00:00 16,7 12,6 18 10 22 12 NW 1022,4 10

tt = Température de l'air
td = dewpoint
ff = Vitesse du vent
fx = gusts
dd = Direction du vent
ppp = reduced air pressure
vv = visibility

stations d'obs. à proximité